Find Kosmos-44

NORAD ID: 876 Int'l Des: 1964-053 Owner: VNIEM Country: SU operational
LEO

Live Position

Loading 3D Globe...

About Kosmos-44

Description loading...

Upcoming Passes

Passes for default location (London). Set your location on the main map for personalized predictions.

Altitude History

Loading altitude history...

Two-Line Element Set

1 876U 64053A 26105.48852028 .00000091 00000-0 36555-4 0 9998
2 876 65.0585 150.9939 0151580 285.0527 73.3845 14.65703478279482
Epoch: Apr 15, 2026 • Age: 13 hours

Current Status

Altitude 612.9 km
Velocity 7.60 km/s
Sub-Earth Point -55.23°S, 162.36°E
Type other

Most Searched